EHI
1 1 3 3 5 7 7 6 4 2 1 2 4 4 2 1 1 0 0 0 0 0 0 0 0 0 0 0 0 0 0 0 0 0 0 0 0 0
2 1 1 3 6 8 9 8 6 4 2 2 4 4 3 2 0 0 0 0 0 0 0 0 0 0 0 0 0 0 0 0 0 0 0 0 0 0
3 2 2 4 7 9 10 9 8 7 4 2 3 5 4 3 1 1 0 0 0 0 0 0 0 0 0 0 0 0 0 0 0 0 0 0 0 0
5 6 6 6 7 8 9 9 8 8 6 4 4 5 5 4 3 3 1 1 0 0 0 0 0 0 0 0 0 0 0 0 0 0 0 0 0 0
8 9 7 6 7 8 7 7 7 7 8 6 5 5 5 4 5 4 3 3 1 0 0 0 0 0 0 0 0 0 0 0 0 0 0 0 0 0
9 8 7 6 6 7 6 6 6 7 7 6 5 5 4 4 5 4 4 3 2 0 0 0 0 0 0 0 0 0 0 0 0 0 0 0 0 0
7 6 5 5 4 4 4 4 5 6 6 6 5 4 3 3 4 4 3 2 1 1 2 1 1 1 1 0 0 0 0 0 0 0 0 0 0 0
6 5 4 4 4 3 2 2 2 3 5 5 5 4 3 3 3 3 3 2 2 2 3 3 2 2 1 0 0 0 0 0 0 0 0 0 0 0
3 3 3 3 4 4 3 1 1 2 2 3 4 3 3 3 3 3 3 3 3 3 5 5 4 2 1 0 0 0 0 0 0 0 0 0 0 0
1 2 2 2 3 3 2 2 2 2 1 1 2 2 2 2 3 3 3 3 3 4 5 5 4 2 1 1 0 0 0 0 0 0 0 0 0 0
1 1 1 1 1 1 1 1 1 1 1 0 1 1 1 1 1 2 3 3 3 3 4 4 3 3 3 2 1 0 0 0 0 0 0 0 0 0
1 1 1 0 0 0 0 0 0 0 0 0 0 0 0 1 1 2 3 3 3 3 3 3 3 3 3 2 1 1 0 0 0 0 0 0 0 0
2 2 1 0 0 0 0 0 0 0 0 0 0 0 0 1 2 2 3 3 3 3 3 3 3 3 3 1 0 0 0 0 0 0 0 0 0 0
2 2 1 0 0 0 0 0 0 0 0 0 0 0 0 1 1 2 3 3 3 3 3 3 3 3 2 1 0 0 0 0 0 0 0 0 0 0
2 1 1 0 0 0 0 0 0 0 0 0 0 0 0 0 0 1 2 3 3 3 3 3 3 1 1 0 0 0 0 0 0 0 0 0 0 0
1 0 0 0 0 0 0 0 0 0 0 0 0 0 0 0 0 0 1 2 1 1 2 2 2 1 0 0 0 0 0 0 0 0 0 0 0 0
0 0 0 0 0 0 0 0 0 0 0 0 0 0 0 0 0 0 0 0 0 0 1 1 1 0 0 0 0 0 0 0 0 0 0 0 0 0
0 0 0 0 0 0 0 0 0 0 0 0 0 0 0 0 0 0 0 0 0 0 0 0 0 0 0 0 0 0 0 0 0 0 0 0 0 0
0 0 0 0 0 0 0 0 0 0 0 0 0 0 0 0 0 0 0 0 0 0 0 0 0 0 0 0 0 0 0 0 0 0 0 0 0 0
0 0 0 0 0 0 0 0 0 0 0 0 0 0 0 0 0 0 0 0 0 0 0 0 0 0 0 0 0 0 0 0 0 0 0 0 0 0
0 0 0 0 0 0 0 0 0 0 0 0 0 0 0 0 0 0 0 0 0 0 0 0 0 0 0 0 0 0 0 0 0 0 0 0 0 0
0 0 0 0 0 0 0 0 0 0 0 0 0 0 0 0 0 0 0 0 0 0 0 0 0 0 0 0 0 0 0 0 0 0 0 0 0 0
0 0 0 0 0 0 0 0 0 0 0 0 0 0 0 0 0 0 0 0 0 0 0 0 0 0 0 0 0 0 0 0 0 0 0 0 0 0
Wind_Speed
6 6 6 4 5 5 5 5 6 6 5 3 3 2 2 2 1 4 4 4 6 5 6 6 6 6 7 7 7 7 7 7 7 7 7 7 7 7
5 5 5 5 4 5 5 5 5 6 6 3 2 2 2 2 1 2 1 4 3 3 3 4 3 3 4 5 5 6 6 6 6 5 6 5 5 5
5 6 6 6 5 5 5 5 6 6 6 5 3 1 2 3 1 2 2 1 2 4 3 2 2 1 2 3 3 4 4 4 5 5 5 4 4 4
5 5 5 4 5 5 5 6 5 5 6 6 4 2 2 3 2 2 2 1 1 6 5 4 3 2 2 1 2 2 3 3 4 4 4 3 4 4
4 4 4 4 5 4 5 5 4 4 4 5 4 2 2 2 2 2 1 1 1 4 6 6 5 5 5 4 3 2 2 2 2 2 2 2 1 1
3 2 3 3 4 4 4 4 4 4 3 3 4 3 2 2 2 2 2 1 1 1 3 4 6 7 7 6 5 5 3 3 2 2 2 2 2 2
1 1 1 2 3 2 2 2 2 2 2 2 2 2 2 1 2 2 2 1 1 1 1 1 2 3 4 4 5 5 5 4 4 3 3 3 3 2
0 1 1 1 3 4 4 5 5 2 2 2 1 1 2 2 2 2 1 1 1 1 0 1 1 2 3 4 6 6 5 5 6 5 4 4 3 3
1 1 1 2 1 2 3 4 6 7 4 2 2 2 2 2 2 1 1 1 1 1 0 1 1 2 3 5 7 7 6 6 6 5 5 4 3 3
3 3 2 2 3 1 3 5 6 6 5 4 3 4 4 4 3 2 0 1 2 2 2 1 1 1 3 4 6 5 5 4 4 4 3 2 1 1
4 4 3 3 5 3 4 5 6 5 8 11 10 9 10 10 7 2 1 0 1 2 3 1 0 0 1 2 4 5 4 4 3 2 2 1 1 3
4 5 8 6 6 4 4 5 5 4 5 6 7 7 7 9 9 6 4 3 2 2 4 2 1 1 0 1 2 2 3 4 4 3 2 0 3 4
4 4 6 9 9 8 6 6 5 4 5 6 6 6 6 6 7 7 6 5 3 3 3 3 2 2 1 0 0 1 1 1 0 2 3 3 1 3
4 5 7 9 10 10 8 7 5 3 4 5 5 5 5 5 5 6 6 6 5 5 4 4 2 3 2 2 1 1 1 2 2 2 2 3 4 3
7 10 8 7 8 8 9 6 4 4 5 5 5 5 5 4 3 3 4 4 4 4 4 4 3 3 3 2 2 2 2 2 2 3 3 3 3 1
6 8 8 7 7 7 6 5 5 5 4 5 4 4 3 3 3 3 3 2 3 3 4 4 4 3 3 3 2 2 3 3 3 4 5 4 3 2
4 4 5 5 5 6 6 5 5 4 4 4 4 4 3 3 3 3 3 2 3 3 3 3 3 2 3 4 3 3 3 3 3 4 5 4 2 3
4 6 6 6 6 6 5 5 5 5 5 4 4 4 4 3 4 3 3 3 4 4 4 3 3 1 1 3 5 5 4 4 4 4 5 4 3 3
5 6 6 6 5 5 5 5 6 6 4 4 4 4 4 4 4 4 4 4 4 4 4 4 5 5 4 2 3 2 5 5 5 4 4 4 4 3
6 6 6 5 5 5 5 5 5 5 4 4 4 4 4 4 4 4 5 6 5 4 4 4 5 6 6 6 4 2 0 5 6 5 5 5 3 2
6 6 5 5 5 5 5 4 4 5 5 4 4 4 4 4 4 4 4 3 4 4 4 4 4 4 5 4 4 2 2 2 2 5 6 6 5 4
5 5 5 5 4 4 3 3 3 4 4 3 4 4 4 4 4 4 4 4 4 4 4 4 3 3 3 4 5 5 4 3 3 7 5 4 6 7
4 4 4 3 3 2 3 3 3 3 3 3 3 3 3 3 3 3 3 4 4 5 5 4 4 3 4 4 5 5 6 6 4 3 2 6 9 9
Wind_Direction
240 234 241 247 251 259 258 262 270 274 266 238 242 234 253 254 303 248 248 174 195 212 221 227 231 234 235 234 232 232 231 230 229 227 228 231 235 240
249 255 253 254 252 250 253 256 260 267 276 281 259 276 294 278 153 256 251 117 135 177 199 211 216 219 224 226 226 225 223 220 220 224 226 227 231 238
243 244 246 258 263 260 253 252 253 255 259 267 256 243 240 277 272 248 239 226 135 128 144 156 176 196 206 210 215 215 211 206 207 212 216 219 224 233
245 251 257 253 251 261 261 257 255 256 258 264 266 250 229 242 248 261 269 251 100 106 113 110 105 106 117 153 188 197 199 198 196 195 200 206 220 233
249 252 262 266 263 260 261 263 262 255 253 261 268 274 264 259 242 229 232 298 272 126 121 108 97 93 85 82 84 100 137 163 166 169 174 178 191 231
249 262 281 282 280 276 265 268 271 270 258 259 265 261 266 276 271 261 232 201 272 52 76 91 101 96 86 81 77 76 83 94 110 125 117 102 93 81
255 340 24 40 23 352 315 308 289 268 257 252 267 283 290 293 275 277 284 296 23 352 88 118 121 103 99 91 80 73 78 83 83 80 87 95 93 81
356 342 48 67 78 78 56 38 19 332 298 288 292 303 319 317 314 303 296 267 261 332 302 51 59 68 61 66 70 78 79 78 77 74 69 68 68 67
48 17 1 31 28 82 94 89 61 42 21 329 332 334 333 327 318 306 317 327 352 344 345 96 75 78 85 77 76 75 73 71 69 68 67 62 57 54
54 41 40 32 27 32 94 87 72 53 43 52 50 30 17 357 329 321 7 141 124 43 351 37 63 66 82 94 98 88 84 79 78 75 73 61 62 67
60 44 43 59 35 57 106 103 93 88 78 73 66 66 58 42 22 17 25 0 68 68 21 4 23 37 93 111 121 127 118 108 99 96 91 42 313 244
85 71 55 50 46 50 96 99 96 85 85 85 76 68 61 57 48 35 22 26 37 53 31 350 354 314 198 101 83 128 137 139 150 150 149 153 319 288
81 73 63 59 60 54 62 71 69 74 86 82 77 67 60 54 47 45 36 33 35 46 20 339 338 329 317 60 49 29 26 35 110 160 169 174 215 305
78 80 78 75 71 63 65 65 66 69 82 77 70 62 54 49 48 48 48 48 47 51 24 356 350 342 323 332 8 18 17 0 347 341 350 163 189 191
78 78 84 91 97 82 72 64 66 72 73 73 68 58 52 49 51 67 76 85 88 69 52 19 358 350 328 341 1 1 347 3 358 344 339 338 339 327
100 106 105 89 87 87 91 79 68 60 62 74 71 64 59 55 46 39 40 46 61 80 73 43 22 359 353 9 354 359 356 352 353 354 343 336 338 358
104 102 93 90 85 80 76 69 67 70 64 59 61 59 53 51 48 41 23 22 36 38 52 54 46 36 29 349 354 6 357 350 357 359 319 321 348 357
90 89 80 75 73 73 72 71 64 55 49 49 50 45 43 42 40 35 23 19 25 27 26 19 3 344 169 96 19 351 348 348 347 338 320 326 337 355
84 80 75 72 70 68 65 61 59 54 39 43 43 39 36 37 38 32 25 20 22 24 24 15 1 345 339 23 96 20 346 339 331 336 338 331 326 342
75 76 75 72 67 62 61 59 58 56 47 41 40 35 30 28 29 28 32 17 12 13 19 22 16 1 351 349 349 16 28 338 343 340 335 326 321 305
77 75 72 72 70 66 61 59 56 52 42 35 43 32 27 24 21 19 34 26 345 5 6 25 27 310 298 307 313 352 41 156 302 321 327 322 323 315
81 81 76 70 67 65 67 62 63 61 52 42 42 33 26 19 20 12 9 3 2 4 357 7 2 324 328 334 333 341 348 335 227 219 246 289 326 330
79 78 81 80 72 60 57 60 55 53 47 39 37 26 18 10 359 0 359 353 359 357 345 347 347 339 337 332 329 333 334 325 321 305 249 195 213 234